Location: Capel Gartheli
(52.1833°N, 4.0667°W)
Time: 04:28:17
(UTC+00:00)

Cosmos 2173 Rocket - Pass Details

Date: 18 February 2020
Orbit: 944 x 1002 km, 83.0° (Epoch: 09 April)

Event Time Altitude Azimuth Distance (km) Brightness Sun altitude
Rises 05:03:14 0° 350° (N) 3,726 7.1 -22.6°
Reaches altitude 10° 05:05:50 10° 354° (N) 2,766 6.4 -22.2°
Maximum altitude 05:12:08 63° 75° (ENE) 1,095 4.5 -21.2°
Drops below altitude 10° 05:18:17 10° 157° (SSE) 2,710 6.5 -20.3°
Sets 05:20:48 0° 160° (SSE) 3,644 7.2 -19.9°
